Погода в Витория-да-Конкиста

Бразилия     14°51′12″S   40°51′29″W
темп.,
°C
ветер,
м/с
пор.,
м/с
влажн.,
%
обл.,
%
осадки,
мм/ч
давл.,
гПа
погр.,
м
28 июля, ср
ср2800:00+15в26975 0.0 1018135
03:00+14в119818 0.0 101818
06:00+14всв129833 0.0 101840
09:00+21с34630 0.0 1019679
12:00+27сз323611 0.0 10162332
15:00+28зсз322910 0.0 10122532
18:00+21зсз22424 0.0 101422
21:00+19всв22520 0.0 101632
29 июля, чт
чт2900:00+16всв22910 0.0 101728
03:00+15ссв24943 0.0 101675
06:00+15ссв12930 0.0 101713
09:00+24с33520 0.0 1018604
12:00+30з34260 0.0 10152577
15:00+31зюз34246 0.0 10122927
18:00+25вюв373682 0.0 1015283
21:00+19юв511759 0.0 1019539
30 июля, пт
пт3000:00+18вюв6119097 0.1 1019651
03:00+17юв51294100 0.1 1019619
06:00+16юв51092100 0.4 1021836
09:00+15юв51195100 0.6 1024696
12:00+15юв41094100 0.1 1024641
15:00+16юв5108899 0.1 1021627
18:00+15юв51190100 0.0 1024711
21:00+14юв51293100 0.0 1026628
31 июля, сб
сб3100:00+13юв51394100 0.0 1026618
03:00+13юв61492100 0.0 1024636
06:00+13юв61493100 0.0 1025668
09:00+14юв51285100 0.0 1027776
12:00+16юв6118298 0.1 1026904
15:00+19юв696483 0.2 10231184
18:00+15юв5118899 0.1 1025803
21:00+14юв5129164 0.2 1027759
1 августа, вс
вс100:00+12юв6139399 0.1 1027732
03:00+13юв61290100 0.1 1026829
06:00+12ююв51390100 0.0 1027781
09:00+14юв6118068 0.1 1028918
12:00+17юв5862100 0.1 10271265
15:00+18юв575152 0.1 10241457
18:00+14вюв4106814 0.0 1026590
21:00+12юв412924 0.0 1027577